Location: Santa Cristina
(46.5667°N, 11.7167°E)
Time: 07:41:50
(UTC+00:00)

ADEOS II - Pass Details

Date: 21 April 2021
Orbit: 798 x 801 km, 98.6° (Epoch: 05 May)

Event Time Altitude Azimuth Distance (km) Brightness Sun altitude
Rises 01:26:04 0° 15° (NNE) 3,318 6.4 -24.3°
Reaches altitude 10° 01:28:25 10° 17° (NNE) 2,383 5.5 -24.0°
Maximum altitude 01:33:41 77° 104° (ESE) 824 2.1 -23.5°
Enters shadow 01:35:02 51° 177° (S) 1,003 2.2 -23.3°
